| time (UTC) | temp C | wind direction | speed KPH | gust KPH | rain 1hr cm | rain 24hr cm | rain mn cm | humidity % | barometer mb |
| 20260502113818 | 23 | 292 | 8.0 | 24.1 | 0.00 | 0.00 | 0.00 | 43 | 1017.3 |
| 20260502111818 | 23 | 132 | 8.0 | 14.5 | 0.00 | 0.00 | 0.00 | 41 | 1017.5 |
| 20260502103818 | 22 | 143 | 3.2 | 12.9 | 0.00 | 0.00 | 0.00 | 38 | 1017.8 |
| 20260502062817 | 10 | 132 | 0.0 | 0.0 | 0.00 | 0.00 | 0.00 | 76 | 1019.6 |
| 20260502061817 | 9 | 132 | 0.0 | 3.2 | 0.00 | 0.00 | 0.00 | 79 | 1019.6 |
| 20260502054816 | 6 | 131 | 0.0 | 0.0 | 0.00 | 0.00 | 0.00 | 87 | 1019.7 |
| 20260502045817 | 4 | 360 | 0.0 | 0.0 | 0.00 | 0.00 | 0.00 | 89 | 1019.8 |
| 20260502044817 | 4 | 360 | 0.0 | 0.0 | 0.00 | 0.00 | 0.00 | 89 | 1019.9 |
| 20260502043816 | 4 | 360 | 0.0 | 1.6 | 0.00 | 0.00 | 0.00 | 89 | 1019.9 |
| 20260502042817 | 4 | 360 | 0.0 | 1.6 | 0.00 | 0.00 | 0.00 | 88 | 1019.8 |
| 20260502041816 | 4 | 360 | 0.0 | 0.0 | 0.00 | 0.00 | 0.00 | 88 | 1019.8 |
| 20260502040816 | 5 | 360 | 0.0 | 0.0 | 0.00 | 0.00 | 0.00 | 89 | 1019.9 |
| 20260502033816 | 5 | 360 | 1.6 | 1.6 | 0.00 | 0.00 | 0.00 | 87 | 1019.8 |
| 20260502032816 | 5 | 360 | 0.0 | 3.2 | 0.00 | 0.00 | 0.00 | 87 | 1019.9 |
| 20260502020817 | 5 | 360 | 0.0 | 0.0 | 0.00 | 0.00 | 0.00 | 87 | 1020.4 |
| 20260502013816 | 5 | 360 | 0.0 | 1.6 | 0.00 | 0.00 | 0.00 | 86 | 1020.7 |
| 20260501205814 | 11 | 360 | 4.8 | 8.0 | 0.00 | 0.00 | 0.00 | 62 | 1022.0 |
| 20260501204814 | 12 | 360 | 4.8 | 9.7 | 0.00 | 0.00 | 0.00 | 61 | 1022.0 |
| 20260501194815 | 15 | 360 | 0.0 | 1.6 | 0.00 | 0.00 | 0.00 | 48 | 1022.0 |
| 20260501193819 | 15 | 360 | 1.6 | 3.2 | 0.00 | 0.00 | 0.00 | 46 | 1022.1 |
| 20260501192814 | 16 | 360 | 3.2 | 4.8 | 0.00 | 0.00 | 0.00 | 45 | 1022.1 |
| 20260501190814 | 16 | 360 | 1.6 | 4.8 | 0.00 | 0.00 | 0.00 | 44 | 1022.1 |
| 20260501184815 | 18 | 117 | 6.4 | 8.0 | 0.00 | 0.00 | 0.00 | 42 | 1022.0 |
| 20260501181815 | 21 | 205 | 1.6 | 4.8 | 0.00 | 0.00 | 0.00 | 35 | 1021.9 |
| 20260501175813 | 21 | 19 | 3.2 | 6.4 | 0.00 | 0.00 | 0.00 | 31 | 1021.9 |
| 20260501172813 | 22 | 77 | 1.6 | 11.3 | 0.00 | 0.00 | 0.00 | 30 | 1021.8 |
| 20260501171814 | 22 | 46 | 1.6 | 9.7 | 0.00 | 0.00 | 0.00 | 31 | 1021.9 |
| 20260501151814 | 22 | 355 | 3.2 | 16.1 | 0.00 | 0.00 | 0.00 | 32 | 1022.6 |